Home > Weather > Pago Pago > Past weeks

Flag for American Samoa Past Weather in Pago Pago, American Samoa — Yesterday and Last 2 Weeks

Now
85 °F

Broken clouds.


Feels Like: 100 °F
Forecast: 79 / 83 °F
Wind: 17 mph from Southeast

Location: Pago Pago / Int. Airp.

Current Time: Jul 24, 2016 at 1:14:15 PM

Latest Report: Jul 24, 2016 at 11:51 AM


Visibility: 10 mi

Pressure: 29.91 "Hg

Humidity: 83%

Dew Point: 80 °F

Location of Pago PagoLocation

Past Weather in Pago Pago — Graph

°F

Pago Pago Temperature Yesterday

Maximum temperature yesterday: 85 °F (at 12:50 PM)
Minimum temperature yesterday: 78 °F (at 3:50 AM)
Average temperature yesterday: 81 °F

High & Low Weather Summary for the Past Weeks

 TemperatureHumidityPressure
High86 °F (Jul 9, 11:57 AM)100% (Jul 11, 12:50 AM)30.02 "Hg (Jul 11, 12:50 AM)
Low70 °F (Jul 17, 3:52 AM)60% (Jul 16, 12:50 PM)29.77 "Hg (Jul 12, 3:50 PM)
Average79 °F84%29.89 "Hg
* Reported Jul 9 11:57 AM — Jul 24 11:51 AM, Pago Pago, Weather by CustomWeather, © 2016

Note: Actual official high and low records may vary slightly from our data, if they occured in-between our weather recording intervals... More about our weather records

Advertising

Pago Pago Weather History for the Previous 24 Hours

Scroll right to see more
 ConditionsComfort  
Time TempWeatherWind HumidityBarometerVisibility
11:51 AM
Sun, Jul 24
85 °FBroken clouds.17 mph83%29.91 "Hg10 mi
10:51 AM84 °FBroken clouds.16 mph88%29.94 "Hg10 mi
9:54 AM83 °FBroken clouds.20 mph90%29.95 "Hg10 mi
8:54 AM82 °FBroken clouds.16 mph90%29.94 "Hg10 mi
8:00 AM81 °FBroken clouds.18 mph92%29.92 "Hg12 mi
7:50 AM81 °FBroken clouds.18 mph92%29.92 "Hg12 mi
6:51 AM80 °FBroken clouds.21 mph93%29.91 "Hg10 mi
5:53 AM80 °FPartly cloudy.20 mph94%29.90 "Hg10 mi
4:50 AM80 °FPartly cloudy.16 mph94%29.88 "Hg10 mi
3:52 AM80 °FPartly cloudy.14 mph94%29.87 "Hg10 mi
2:50 AM80 °FPartly cloudy.15 mph94%29.86 "Hg10 mi
1:51 AM80 °FPartly cloudy.14 mph94%29.88 "Hg10 mi
12:50 AM80 °FOvercast.16 mph94%29.90 "Hg10 mi
11:50 PM
Sat, Jul 23
80 °FPartly cloudy.14 mph93%29.90 "Hg10 mi
10:50 PM81 °FPassing clouds.15 mph89%29.91 "Hg10 mi
9:50 PM80 °FPassing clouds.13 mph92%29.92 "Hg10 mi
8:51 PM80 °FPassing clouds.14 mph93%29.91 "Hg10 mi
8:00 PM80 °FPassing clouds.14 mph93%29.90 "Hg10 mi
7:50 PM80 °FPassing clouds.14 mph93%29.90 "Hg10 mi
7:00 PM81 °FPartly cloudy.13 mph94%29.88 "Hg10 mi
6:50 PM81 °FPartly cloudy.13 mph93%29.88 "Hg10 mi
5:51 PM81 °FScattered clouds.14 mph92%29.86 "Hg11 mi
4:50 PM81 °FBroken clouds.15 mph93%29.85 "Hg12 mi
3:50 PM82 °FBroken clouds.16 mph93%29.85 "Hg12 mi
2:53 PM83 °FBroken clouds.17 mph88%29.85 "Hg12 mi
1:50 PM84 °FBroken clouds.15 mph88%29.87 "Hg12 mi
Weather by CustomWeather, © 2016

See weather overviewHow to use our weather pages